Regional Weather Roundup
Issued by NWS

Home | Current Version | Previous Version | Text Only | Print | Product List | Glossary Off
Versions: 1 2 3 4 5 6 7 8 9 10 11 12 13 14 15 16 17 18 19 20 21 22 23 24 25 26 27

000
ASUS45 KCYS 240210
RWRWY

WYOMING REGIONAL WEATHER ROUNDUP
NATIONAL WEATHER SERVICE CHEYENNE WY
800 PM MDT SAT SEP 23 2017

NOTE:  "FAIR" INDICATES FEW OR NO CLOUDS BELOW 12,000 FEET
WITH NO SIGNIFICANT WEATHER AND/OR OBSTRUCTIONS TO VISIBILITY.

WYZ001-240300-
YELLOWSTONE NATIONAL PARK

CITY           SKY/WX    TMP DP  RH WIND       PRES   REMARKS
LK YELLOWSTONE NOT AVBL
W YELLOWSTONE  NOT AVBL

$$
WYZ002>013-054>058-071-098>099-240300-
NORTHERN WYOMING

CITY           SKY/WX    TMP DP  RH WIND       PRES   REMARKS
JACKSON        CLOUDY    44  34  67 NE8       29.98R
CODY           CLOUDY    39  35  86 N12       30.09R WCI  32
GREYBULL       LGT RAIN  44  42  93 NW9       30.05R
WORLAND        LGT RAIN  42  42 100 W3        30.05S
SHERIDAN       CLOUDY    41  41 100 NE5       30.10R
BUFFALO        CLOUDY    39  36  89 N9        30.08S WCI  33
GILLETTE       LGT RAIN  41  32  70 N9        30.06R
HULETT         RAIN      41  41 100 NE5       30.07R
NEWCASTLE      DRIZZLE   43  43 100 S3        30.04R

$$
WYZ014>020-022>026-101>103-240300-
CENTRAL WYOMING

CITY           SKY/WX    TMP DP  RH WIND       PRES   REMARKS
BIG PINEY      LGT RAIN  44  35  70 N5        29.94S
PINEDALE       CLOUDY    43  34  70 SW3       29.97R
DUBOIS         CLOUDY    36  34  93 SE10G17   30.00S WCI  28
LANDER         CLOUDY    39  38  96 NW5       30.03R FOG
RIVERTON       LGT RAIN  40  39  97 NE6       30.03R
CASPER         CLOUDY    39  37  92 N18G25    29.98S WCI  30
DOUGLAS        CLOUDY    45  43  93 E7        29.98F

$$
WYZ021-027>030-104>119-240300-
SOUTHERN WYOMING

CITY           SKY/WX    TMP DP  RH WIND       PRES   REMARKS
EVANSTON       LGT SNOW  36  35  96 W8        29.95R FOG     WCI  30
KEMMERER         N/A     41  34  75 NW13      29.93F
FORT BRIDGER   CLOUDY    45  37  74 NW3       29.95R
ROCK SPRINGS   CLOUDY    39  35  86 NE20G28   29.94S WCI  29
DIXON          FAIR      50  38  64 CALM      29.93R
RAWLINS        FAIR      45  40  82 NE14      29.94R
SARATOGA       FAIR      45  37  76 SE15      29.93S
LARAMIE        CLOUDY    43  40  89 W3        29.95S
CHEYENNE       RAIN      41  39  93 NE10      29.99F FOG
TORRINGTON     LGT RAIN  45  44  97 E7        30.01R
PINE BLUFFS    RAIN      41  41 100 NE6       30.01S

$$




USA.gov is the U.S. government's official web portal to all federal, state and local government web resources and services.